This is the latest recevied weather packets stored in our database for station/object KD8ZLZ-13. If no packets are shown the sender has not sent any weather packets the latest 10 day(s).
| Time | Temp. | Humidity | Pressure | Rain* | Wind** | Luminosity | Snow |
|---|---|---|---|---|---|---|---|
| 1777472864 | 8.89° C | 85% | 1013.2 hPa | 0 mm | - | 57 W/m² | - |
| 1777472264 | 8.89° C | 85% | 1013.2 hPa | 0 mm | - | 51 W/m² | - |
| 1777471064 | 8.89° C | 85% | 1013.2 hPa | 0 mm | - | 64 W/m² | - |
| 1777469264 | 9.44° C | 82% | 1013.2 hPa | 0 mm | - | 58 W/m² | - |
| 1777468664 | 9.44° C | 81% | 1013.6 hPa | 0 mm | - | 59 W/m² | - |
| 1777468064 | 9.44° C | 82% | 1013.6 hPa | 0 mm | - | 54 W/m² | - |
| 1777467464 | 9.44° C | 83% | 1013.9 hPa | 0 mm | - | 62 W/m² | - |
| 1777466264 | 8.89° C | 83% | 1013.9 hPa | 0 mm | - | 57 W/m² | - |
| 1777465664 | 8.89° C | 84% | 1013.9 hPa | 0 mm | - | 62 W/m² | - |
| 1777465064 | 8.89° C | 84% | 1013.9 hPa | 0 mm | - | 62 W/m² | - |
| 1777464464 | 8.89° C | 84% | 1014.2 hPa | 0 mm | - | 37 W/m² | - |
| 1777463864 | 9.44° C | 85% | 1013.9 hPa | 0 mm | - | 36 W/m² | - |
| 1777462664 | 8.89° C | 84% | 1014.2 hPa | 0 mm | - | 19 W/m² | - |
| 1777462064 | 9.44° C | 82% | 1014.2 hPa | 0 mm | - | 9 W/m² | - |
| 1777461464 | 9.44° C | 81% | 1014.2 hPa | 0 mm | - | 4 W/m² | - |
| 1777460864 | 9.44° C | 80% | 1014.2 hPa | 0 mm | - | 8 W/m² | - |
| 1777460264 | 9.44° C | 80% | 1013.9 hPa | 0 mm | - | 5 W/m² | - |
| 1777459664 | 9.44° C | 80% | 1013.6 hPa | 0 mm | - | 1 W/m² | - |
| 1777459064 | 9.44° C | 79% | 1013.6 hPa | 0 mm | - | 0 W/m² | - |
| 1777458464 | 9.44° C | 81% | 1013.2 hPa | 0 mm | - | 0 W/m² | - |
| 1777457864 | 10° C | 80% | 1013.2 hPa | 0 mm | - | 0 W/m² | - |
| 1777457264 | 10° C | 80% | 1013.2 hPa | 0 mm | - | 0 W/m² | - |
| 1777456664 | 10.56° C | 77% | 1012.6 hPa | 0 mm | - | 0 W/m² | - |
| 1777456064 | 10.56° C | 74% | 1012.2 hPa | 0 mm | - | 0 W/m² | - |
| 1777455464 | 10.56° C | 75% | 1012.6 hPa | 0 mm | - | 0 W/m² | - |
* Rain latest hour (hover to see other rain measurements)
** Current wind speed in m/s (hover to see current wind gust speed)